Weather History for Fryeburg, ME

Change the Weather History Date:

Tuesday, January 24, 2012

  Actual Average Record
Temperature  
Mean Temperature 40 °F -  
Max Temperature 48 °F 26 °F 48 °F (2012)
Min Temperature 32 °F 2 °F -27 °F (2011)
Degree Days  
Heating Degree Days 25    
Moisture  
Dew Point 32 °F    
Average Humidity 84    
Maximum Humidity 100    
Minimum Humidity 51    
Precipitation  
Precipitation 0.08 in - - ()
Sea Level Pressure  
Sea Level Pressure 29.87 in    
Wind  
Wind Speed 1 mph (WSW)    
Max Wind Speed 9 mph    
Max Gust Speed 20 mph    
Visibility 8 miles    
Events Rain    
Averages and records for this station are not official NWS values.
T = Trace of Precipitation, MM = Missing Value Source: NWS Daily Summary

Daily Weather History Graph

Daily Weather History Graph

Search for Another Location

Airport:

Trip Planner

Search our weather history database for the weather conditions in past years. The results will help you decide how hot, cold, wet, or windy it might be!

Date:

Astronomy

Jan. 24, 2012 Rise Set
Actual Time 7:09 AM EST 4:42 PM EST
Civil Twilight 6:38 AM EST 5:13 PM EST
Nautical Twilight 6:03 AM EST 5:49 PM EST
Astronomical Twilight 5:28 AM EST 6:23 PM EST
Moon 7:32 AM EST (1/24) 6:36 PM EST (1/24)
Length of Visible Light 10h 35m
Length of Day
9h 33m
New Moon, 2% of the Moon is Illuminated
Jan 24
New Moon
Jan 30
First Quarter
Feb 7
Full
Feb 14
Last Quarter
Feb 21
New

Hourly Weather History & Observations

Time (EST) Temp. Windchill Dew Point Humidity Pressure Visibility Wind Dir Wind Speed Gust Speed Precip Events Conditions
12:20 AM 33.8 °F - 32.0 °F 93% 29.87 in 1.2 mi Calm Calm - 0.04 in Rain Light Rain
12:29 AM 32.0 °F - 32.0 °F 100% 29.86 in 2.0 mi Calm Calm - 0.05 in Rain Light Rain
12:38 AM 32.0 °F - 32.0 °F 100% 29.86 in 1.8 mi Calm Calm - 0.05 in   Overcast
12:51 AM 32.0 °F - 32.0 °F 100% 29.85 in 2.5 mi Calm Calm - 0.05 in   Overcast
12:54 AM 32.0 °F - 32.0 °F 100% 29.87 in 2.5 mi Calm Calm - 0.05 in   Overcast
1:05 AM 33.8 °F - 33.8 °F 100% 29.84 in 3.0 mi Calm Calm - 0.01 in   Overcast
1:50 AM 32.0 °F - 32.0 °F 100% 29.83 in 2.5 mi Calm Calm - 0.02 in   Overcast
1:54 AM 33.1 °F - 32.0 °F 96% 29.85 in 2.5 mi Calm Calm - 0.03 in   Overcast
2:02 AM 33.8 °F - 32.0 °F 93% 29.83 in 3.0 mi Calm Calm - 0.00 in   Overcast
2:18 AM 33.8 °F - 32.0 °F 93% 29.83 in 4.0 mi Calm Calm - 0.00 in   Overcast
2:54 AM 33.1 °F - 32.0 °F 96% 29.84 in 5.0 mi Calm Calm - 0.00 in   Overcast
3:54 AM 33.1 °F - 32.0 °F 96% 29.83 in 10.0 mi Calm Calm - N/A   Overcast
4:02 AM 33.8 °F - 32.0 °F 93% 29.81 in 8.0 mi Calm Calm - N/A   Overcast
4:42 AM 33.8 °F - 33.8 °F 100% 29.81 in 10.0 mi Calm Calm - N/A   Overcast
4:54 AM 33.1 °F - 32.0 °F 96% 29.83 in 6.0 mi Calm Calm - N/A   Overcast
5:52 AM 33.8 °F - 32.0 °F 93% 29.82 in 10.0 mi Calm Calm - N/A   Overcast
5:54 AM 33.1 °F - 32.0 °F 96% 29.84 in 10.0 mi Calm Calm - N/A   Overcast
6:54 AM 33.1 °F - 32.0 °F 96% 29.84 in 10.0 mi Calm Calm - N/A   Overcast
7:54 AM 33.1 °F - 33.1 °F 100% 29.85 in 10.0 mi Calm Calm - N/A   Overcast
8:51 AM 41.0 °F - 39.2 °F 93% 29.84 in 10.0 mi Calm Calm - N/A   Overcast
8:54 AM 39.9 °F - 39.0 °F 97% 29.86 in 10.0 mi Calm Calm - N/A   Overcast
9:54 AM 42.1 °F 38.4 °F 39.0 °F 89% 29.86 in 10.0 mi NE 5.8 mph - N/A   Mostly Cloudy
10:54 AM 46.0 °F 43.1 °F 41.0 °F 83% 29.86 in 10.0 mi Variable 5.8 mph - N/A   Overcast
11:54 AM 46.9 °F - 39.9 °F 77% 29.85 in 10.0 mi SW 4.6 mph - N/A   Mostly Cloudy
12:54 PM 48.9 °F - 37.9 °F 66% 29.84 in 10.0 mi WSW 9.2 mph 19.6 mph N/A   Clear
2:54 PM 48.9 °F - 34.0 °F 56% 29.86 in 10.0 mi WSW 6.9 mph - N/A   Scattered Clouds
3:54 PM 46.0 °F 43.9 °F 33.1 °F 61% 29.89 in 10.0 mi Variable 4.6 mph - N/A   Overcast
4:54 PM 43.0 °F - 32.0 °F 65% 29.92 in 10.0 mi Calm Calm - N/A   Overcast
5:54 PM 42.1 °F 39.2 °F 32.0 °F 67% 29.93 in 10.0 mi SSW 4.6 mph - N/A   Overcast
6:54 PM 41.0 °F 37.1 °F 30.9 °F 67% 29.95 in 10.0 mi SW 5.8 mph - N/A   Overcast
7:54 PM 39.9 °F 36.7 °F 28.9 °F 65% 29.95 in 10.0 mi Variable 4.6 mph - N/A   Overcast
8:54 PM 39.0 °F 35.7 °F 28.0 °F 65% 29.96 in 10.0 mi Variable 4.6 mph - N/A   Overcast
9:54 PM 39.9 °F 35.1 °F 23.0 °F 51% 29.97 in 10.0 mi West 6.9 mph - N/A   Overcast
10:54 PM 37.9 °F 33.5 °F 24.1 °F 57% 29.98 in 10.0 mi NW 5.8 mph - N/A   Mostly Cloudy
11:54 PM 37.0 °F 32.4 °F 21.0 °F 52% 29.98 in 10.0 mi Variable 5.8 mph - N/A   Partly Cloudy